[[[{"header":{"parameterUnit":"kt","parameterCategory":2,"dx":1,"dy":1,"la1":30.253999710083008,"la2":30.299108505249023,"lo1":-89.0895004272461,"lo2":-89.04439544677734,"nx":28,"ny":28,"refTime":"2022-10-11T21:00:00:Z","depth":0,"parameterNumber":1,"parameterNumberName":"U-component_of_WINDS"},"data":[4.0643,4.0838,4.0891,4.114,4.1229,4.1411,4.1493,4.1605,4.1708,4.1933,4.2073,4.2148,4.2276,4.2459,4.2616,4.2647,4.2712,4.2744,4.2776,4.2581,4.2558,4.2536,4.2493,4.2756,4.2756,4.2972,4.2974,4.2976,4.0499,4.0588,4.0734,4.0911,4.1038,4.1039,4.1181,4.1289,4.1452,4.158,4.1719,4.1923,4.2092,4.2212,4.2385,4.2483,4.2496,4.2527,4.2523,4.2544,4.2336,4.229,4.2513,4.2513,4.2513,4.2513,4.2513,4.2513,4.0253,4.0368,4.0504,4.0664,4.0767,4.0886,4.1007,4.1094,4.124,4.1423,4.1458,4.1645,4.1786,4.2021,4.2113,4.2264,4.2241,4.2292,4.2307,4.232,4.2329,4.2018,4.2295,4.2295,4.2294,4.2294,4.2294,0,4.0091,4.0126,4.0268,4.0427,4.0546,4.0675,4.0802,4.0878,4.0974,4.109,4.1265,4.1375,4.1594,4.1768,4.1941,4.2028,4.2047,4.2053,4.209,4.2079,4.2046,4.2071,4.1735,4.2046,4.2044,4.2042,4.2041,4.2041,3.9851,3.9977,4.0144,4.0238,4.0319,4.0469,4.057,4.0644,4.0748,4.0918,4.1018,4.119,4.1333,4.1606,4.1713,4.1878,4.189,4.2003,4.1915,4.1898,4.1899,4.1893,4.1908,4.202,4.2023,4.2025,4.2027,0,3.9713,3.9795,4.0007,4.0161,4.0203,4.0333,4.0467,4.0586,4.0658,4.0833,4.0878,4.0994,4.1165,4.1253,4.1467,4.1509,4.1734,4.1737,4.1687,4.1694,4.1808,4.1799,4.2155,4.2208,4.193,4.1933,4.1935,0,3.9544,3.9706,3.9821,3.9939,4.0124,4.0193,4.0374,4.0454,4.0574,4.0712,4.0742,4.0872,4.0963,4.1107,4.1168,4.1367,4.1405,4.1451,4.1467,4.1452,4.1447,4.1514,4.1503,4.1489,4.1487,4.1485,4.1484,0,3.9322,3.9571,3.9763,3.9834,4.0014,4.0104,4.0184,4.0317,4.0416,4.0558,4.0624,4.0784,4.0874,4.1,4.1077,4.1014,4.1319,4.125,4.1367,4.1366,4.1434,4.1429,4.1718,4.1481,4.1481,4.148,4.148,0,3.92,3.9336,3.96,3.9752,3.9815,3.9941,4.0103,4.0231,4.037,4.0415,4.0528,4.056,4.0735,4.0661,4.0907,4.0804,4.0892,4.0951,4.0961,4.0986,4.0901,4.1059,4.132,4.1354,4.1005,4.1001,4.0997,0,3.8927,3.9213,3.9273,3.9523,3.9668,3.9693,3.9835,3.9955,4.0028,4.0164,4.0245,4.04,4.0362,4.0424,4.0533,4.0625,4.0758,4.0609,4.0815,4.0821,4.0781,4.1021,4.1041,4.1252,4.0948,4.0953,4.0957,0,3.8726,3.8939,3.8979,3.9064,3.923,3.9351,3.9513,3.968,3.9768,3.9898,4.0041,4.0258,4.0241,4.0341,4.0384,4.0493,4.067,4.046,4.0465,4.05,4.0928,4.0946,4.0981,4.0676,4.0682,4.0687,4.0917,0,3.8532,3.8684,3.8793,3.8974,3.908,3.9239,3.9327,3.9427,3.9457,3.9529,3.9736,3.9858,4.0032,4.0092,4.0122,4.0342,4.0321,4.0299,4.0237,4.0391,4.047,4.0502,4.0112,4.0111,4.011,4.0109,0,0,3.8253,3.8472,3.8531,3.8689,3.8782,3.8804,3.8968,3.9061,3.9251,3.9317,3.9281,3.9607,3.9708,3.9952,4.0006,4.0075,4.0125,4.0066,4.0316,4.0338,4.036,4.0442,4.0473,4.0107,4.0106,4.0106,4.0106,0,3.8201,3.8295,3.8452,3.8551,3.8699,3.8766,3.8803,3.8956,3.9009,3.9209,3.9229,3.9364,3.962,3.9727,3.9815,4.0038,4.0048,4.0083,4.0175,4.0301,4.0325,4.0347,4.0432,4.0461,4.0103,4.0103,4.0103,0,3.8023,3.8132,3.8215,3.8423,3.8521,3.8668,3.8622,3.8778,3.889,3.8909,3.9109,3.9189,3.9337,3.9553,3.9653,3.9625,3.9973,3.9877,3.9886,3.9901,4.0028,4.0057,4.0082,3.9745,3.9744,3.9742,0,0,3.7966,3.8105,3.8246,3.8418,3.8478,3.8579,3.8666,3.8704,3.8833,3.8885,3.8988,3.9116,3.9267,3.9364,3.951,3.9733,3.9773,3.9829,3.9846,3.9859,3.9881,4.0011,4.004,3.9736,3.9736,3.9736,0,0,3.794,3.8108,3.8114,3.8324,3.8445,3.8597,3.8701,3.8713,3.8851,3.8844,3.8918,3.8956,3.9158,3.9237,3.9144,3.949,3.9426,3.945,3.9432,3.9455,3.9471,3.9451,3.9118,0,0,0,0,0,3.7931,3.8087,3.809,3.8138,3.8402,3.8594,3.8629,3.8692,3.8645,3.8727,3.8815,3.8818,3.9203,3.9123,3.9171,3.9275,3.9657,3.9671,3.9684,3.9715,3.9737,3.9756,0,0,0,0,0,0,3.7951,3.8009,3.8086,3.8243,3.8303,3.8589,3.8525,3.8546,3.8638,3.8636,3.88,3.8823,3.8883,3.9102,3.9145,3.9243,3.9103,3.9663,3.9675,3.9685,3.9722,3.9741,3.9757,0,0,0,0,0,3.7966,3.8013,3.8419,3.8242,3.8294,3.8415,3.8519,3.8537,3.861,3.8746,3.8768,3.8649,3.8883,3.8924,3.9128,3.9221,3.9074,3.909,3.967,3.968,3.9688,3.9731,0,0,0,0,0,0,3.7978,3.8033,3.8431,3.8449,3.8186,3.84,3.8435,3.8528,3.8715,3.8739,3.8597,3.8592,3.8886,3.8917,3.8949,3.921,3.905,3.9066,3.9076,3.9678,3.9685,3.9691,0,0,0,0,0,0,3.8008,3.8048,3.844,3.8367,3.8377,3.8386,3.8418,3.8599,3.8717,3.8556,3.8558,3.8593,3.8841,3.8913,3.8938,3.9219,3.9032,3.9047,3.9058,3.9065,3.9684,3.9689,0,0,0,0,0,0,3.8026,3.8061,3.8362,3.837,3.8379,3.8591,3.8549,3.8816,3.865,3.8547,3.8637,3.8631,3.8837,3.8863,3.893,3.9201,3.9214,3.9032,3.9043,3.905,3.9055,0,0,0,0,0,0,0,3.8041,3.7793,3.8321,3.8374,3.8381,3.8619,3.8624,3.8629,3.8649,3.8643,3.8638,3.8634,3.8944,3.8961,3.8978,3.9186,0,0,3.9031,3.9038,0,0,0,0,0,0,0,0,3.778,3.779,3.8321,3.8325,3.8329,3.862,3.8624,3.8628,3.8648,3.8644,3.8639,3.8636,3.8948,3.8962,3.8976,0,0,0,0,0,0,0,0,0,0,0,0,0,0,0,3.8322,3.8325,0,3.862,3.8624,3.8627,3.8647,3.8644,3.864,3.8637,3.8952,3.8963,3.8975,0,0,0,0,0,0,0,0,0,0,0,0,0,0,0,0,0,0,0,0,0,0,0,0,0,0,0,0,0,0,0,0,0,0,0,0,0,0,0,0,0,0,0,0,0,0,0,0,0,0,0,0,0,0,0,0,0,0,0,0,0,0,0,0,0,0,0,0,0]}],[{"header":{"parameterUnit":"kt","parameterCategory":2,"dx":1,"dy":1,"la1":30.253999710083008,"la2":30.299108505249023,"lo1":-89.0895004272461,"lo2":-89.04439544677734,"nx":28,"ny":28,"refTime":"2022-10-11T21:00:00:Z","depth":0,"parameterNumber":2,"parameterNumberName":"V-component_of_WINDS"},"data":[-2.5849,-2.579,-2.5786,-2.5717,-2.57,-2.5652,-2.5633,-2.5608,-2.5586,-2.5528,-2.5494,-2.548,-2.5455,-2.5412,-2.5373,-2.5368,-2.5353,-2.534,-2.5336,-2.5402,-2.5411,-2.5419,-2.5434,-2.5336,-2.5336,-2.5271,-2.527,-2.527,-2.5911,-2.5895,-2.5855,-2.5812,-2.5779,-2.5791,-2.5757,-2.5729,-2.5684,-2.5655,-2.5619,-2.5566,-2.5522,-2.5498,-2.5455,-2.5428,-2.543,-2.5418,-2.542,-2.5417,-2.5486,-2.5502,-2.5418,-2.5418,-2.5418,-2.5418,-2.5418,-2.5418,-2.6023,-2.5986,-2.5957,-2.5912,-2.5888,-2.586,-2.5824,-2.5807,-2.5767,-2.572,-2.5717,-2.5665,-2.5633,-2.5573,-2.555,-2.551,-2.5522,-2.5504,-2.55,-2.5497,-2.5497,-2.5603,-2.5501,-2.5501,-2.5501,-2.5501,-2.5501,0,-2.6103,-2.6101,-2.6059,-2.6018,-2.5984,-2.5949,-2.5916,-2.5893,-2.588,-2.5846,-2.5796,-2.5766,-2.5706,-2.5658,-2.5613,-2.5591,-2.5596,-2.5593,-2.5582,-2.5585,-2.5597,-2.5595,-2.5713,-2.5595,-2.5596,-2.5596,-2.5597,-2.5597,-2.6218,-2.6173,-2.6135,-2.6108,-2.6087,-2.604,-2.6011,-2.6002,-2.5971,-2.5927,-2.5894,-2.5844,-2.5804,-2.5723,-2.5699,-2.5653,-2.5654,-2.5612,-2.5647,-2.5655,-2.5659,-2.5663,-2.5661,-2.5605,-2.5604,-2.5603,-2.5603,0,-2.6286,-2.6271,-2.6198,-2.6162,-2.6152,-2.6105,-2.6074,-2.6035,-2.602,-2.5964,-2.595,-2.5925,-2.5874,-2.5857,-2.5792,-2.5785,-2.5713,-2.5714,-2.5728,-2.5728,-2.5691,-2.5697,-2.5564,-2.5549,-2.5646,-2.5645,-2.5644,0,-2.638,-2.6318,-2.6302,-2.6258,-2.6193,-2.6183,-2.6118,-2.6097,-2.6066,-2.6021,-2.6023,-2.598,-2.5963,-2.5918,-2.5906,-2.5843,-2.5829,-2.5821,-2.5818,-2.5822,-2.5823,-2.5804,-2.581,-2.5809,-2.581,-2.581,-2.5811,0,-2.6488,-2.6403,-2.6333,-2.6311,-2.6263,-2.6231,-2.6209,-2.6171,-2.614,-2.6096,-2.6077,-2.6025,-2.5998,-2.5959,-2.5944,-2.597,-2.5864,-2.5895,-2.5856,-2.5856,-2.5833,-2.5835,-2.5722,-2.5812,-2.5812,-2.5812,-2.5812,0,-2.6561,-2.6517,-2.6416,-2.6378,-2.6355,-2.6306,-2.6257,-2.6211,-2.6171,-2.616,-2.6124,-2.6122,-2.606,-2.6095,-2.6011,-2.605,-2.6023,-2.6008,-2.6004,-2.5998,-2.6037,-2.5981,-2.5873,-2.5863,-2.5995,-2.5996,-2.5998,0,-2.6693,-2.6584,-2.6574,-2.6476,-2.6423,-2.6431,-2.6377,-2.6339,-2.632,-2.6272,-2.625,-2.6194,-2.6214,-2.6194,-2.6155,-2.6129,-2.608,-2.6135,-2.607,-2.6068,-2.6086,-2.5986,-2.5976,-2.5899,-2.6017,-2.6015,-2.6013,0,-2.6792,-2.673,-2.6713,-2.6688,-2.6634,-2.6586,-2.6523,-2.6465,-2.6436,-2.6388,-2.6337,-2.6253,-2.6268,-2.6231,-2.6221,-2.6181,-2.6113,-2.62,-2.6198,-2.6189,-2.6022,-2.6015,-2.6001,-2.6116,-2.6113,-2.6112,-2.6028,0,-2.6916,-2.6855,-2.6805,-2.6743,-2.6703,-2.6637,-2.6615,-2.6576,-2.6573,-2.6552,-2.6472,-2.6429,-2.6365,-2.6341,-2.6334,-2.6247,-2.6259,-2.6271,-2.6302,-2.6235,-2.6208,-2.6196,-2.6347,-2.6347,-2.6348,-2.6348,0,0,-2.7048,-2.6959,-2.6945,-2.6881,-2.6847,-2.6851,-2.6783,-2.6749,-2.6677,-2.6654,-2.6672,-2.6547,-2.6509,-2.6414,-2.6391,-2.6362,-2.6346,-2.6367,-2.6266,-2.6257,-2.6249,-2.622,-2.6208,-2.635,-2.635,-2.635,-2.635,0,-2.7088,-2.705,-2.6982,-2.6947,-2.6893,-2.6873,-2.6857,-2.6803,-2.6786,-2.6703,-2.6706,-2.6654,-2.6548,-2.6511,-2.6478,-2.6379,-2.6382,-2.636,-2.6318,-2.6273,-2.6263,-2.6255,-2.6224,-2.6213,-2.6352,-2.6352,-2.6351,0,-2.7185,-2.7146,-2.7109,-2.7026,-2.6989,-2.693,-2.6959,-2.6892,-2.6849,-2.685,-2.6768,-2.6739,-2.6683,-2.6593,-2.6551,-2.6565,-2.6418,-2.6456,-2.6451,-2.6446,-2.6401,-2.6389,-2.6379,-2.6519,-2.6519,-2.652,0,0,-2.7222,-2.7163,-2.7114,-2.7032,-2.7009,-2.6976,-2.694,-2.6931,-2.6882,-2.6861,-2.6823,-2.6775,-2.6715,-2.6675,-2.6616,-2.6518,-2.6507,-2.6478,-2.647,-2.6463,-2.6455,-2.6409,-2.6397,-2.6523,-2.6523,-2.6523,0,0,-2.7239,-2.718,-2.7184,-2.7085,-2.704,-2.6984,-2.6934,-2.6937,-2.6881,-2.6886,-2.6863,-2.6849,-2.6763,-2.6732,-2.6772,-2.6627,-2.6657,-2.6647,-2.6649,-2.6639,-2.6631,-2.6641,-2.6792,0,0,0,0,0,-2.7267,-2.7189,-2.7193,-2.7172,-2.7063,-2.6982,-2.6968,-2.6949,-2.6975,-2.6937,-2.6906,-2.691,-2.6751,-2.6785,-2.6764,-2.672,-2.6557,-2.6551,-2.6545,-2.6525,-2.6515,-2.6506,0,0,0,0,0,0,-2.7259,-2.7234,-2.7195,-2.7136,-2.7111,-2.6985,-2.7024,-2.7016,-2.6978,-2.6981,-2.6916,-2.6908,-2.6889,-2.6794,-2.6776,-2.6734,-2.6798,-2.6555,-2.655,-2.6545,-2.6522,-2.6513,-2.6506,0,0,0,0,0,-2.7252,-2.7232,-2.7061,-2.7137,-2.7116,-2.7073,-2.7026,-2.7021,-2.699,-2.694,-2.6932,-2.698,-2.6888,-2.6871,-2.6783,-2.6743,-2.681,-2.6804,-2.6552,-2.6548,-2.6544,-2.6517,0,0,0,0,0,0,-2.7247,-2.7225,-2.7056,-2.7049,-2.7164,-2.7079,-2.7065,-2.7024,-2.6951,-2.6943,-2.7003,-2.7006,-2.6886,-2.6873,-2.686,-2.6748,-2.6821,-2.6814,-2.681,-2.6549,-2.6545,-2.6542,0,0,0,0,0,0,-2.7236,-2.7219,-2.7052,-2.7087,-2.7084,-2.7086,-2.7073,-2.6993,-2.695,-2.7018,-2.7019,-2.7005,-2.6905,-2.6875,-2.6865,-2.6741,-2.6829,-2.6822,-2.6817,-2.6815,-2.6546,-2.6543,0,0,0,0,0,0,-2.7229,-2.7214,-2.7089,-2.7086,-2.7083,-2.7,-2.7015,-2.6902,-2.6983,-2.7021,-2.699,-2.6993,-2.6906,-2.6896,-2.6868,-2.6748,-2.6743,-2.6828,-2.6824,-2.6821,-2.6819,0,0,0,0,0,0,0,-2.7223,-2.7325,-2.7099,-2.7086,-2.7083,-2.6982,-2.698,-2.6978,-2.6984,-2.6987,-2.6989,-2.6992,-2.6867,-2.6859,-2.6852,-2.6754,0,0,-2.6829,-2.6826,0,0,0,0,0,0,0,0,-2.733,-2.7326,-2.7099,-2.7097,-2.7096,-2.6981,-2.698,-2.6978,-2.6984,-2.6986,-2.6989,-2.6991,-2.6865,-2.6859,-2.6853,0,0,0,0,0,0,0,0,0,0,0,0,0,0,0,-2.7099,-2.7098,0,-2.6981,-2.698,-2.6978,-2.6985,-2.6986,-2.6988,-2.699,-2.6863,-2.6858,-2.6853,0,0,0,0,0,0,0,0,0,0,0,0,0,0,0,0,0,0,0,0,0,0,0,0,0,0,0,0,0,0,0,0,0,0,0,0,0,0,0,0,0,0,0,0,0,0,0,0,0,0,0,0,0,0,0,0,0,0,0,0,0,0,0,0,0,0,0,0,0]}]]]